OneWeb SL0092

operational
NORAD ID: 45437 Int'l Des: 2020-020 Owner: ONEWEB Country: UK Constellation: oneweb
LEOCIRCULARPOLARONEWEB_TYPE

OneWeb SL0092について

説明を読み込み中...

リアルタイム位置

3D地球を読み込み中...

次回通過

高度履歴

Altitude vs Time

uPlot chart will show altitude changes over time

軌道要素

1 45437U 20020P 25303.89947720 .00000000 00000-0 -36190-4 0 9990
2 45437 87.8853 66.7213 0001579 88.2519 271.8790 13.11415386272732
Epoch: Oct 30, 2025 • Age: 7 hours

現在のステータス

高度 1221.0 km
速度 7.24 km/s
衛星直下点 -2.77°S, 46.66°W
打ち上げ日 Mar 21, 2020
運用期間 5.6 years
タイプ internet

技術仕様

分類 Payload
質量 148.00 kg
乾燥質量 140.00 kg
総質量 148.00 kg
長さ 1.30 m
直径 1.00 m
スパン 5.00 m
形状 Trapezoid+2 pan
製造者 ONEWUS
バスタイプ ARROW
フェーズステータス In Orbit
所有者/国 ONEWEB/UK

大規模コンステレーション

Loading constellations...